,

(GMT )
St. Stephen

Weather History for CWSS - February, 2012

Change the Weather History Date:

Tuesday, February 14, 2012

  Actual Average Record
Temperature  
Mean Temperature 12 °F -  
Max Temperature 33 °F - - ()
Min Temperature -8 °F - - ()
Degree Days  
Heating Degree Days 52    
Moisture  
Dew Point 9 °F    
Average Humidity 78    
Maximum Humidity 96    
Minimum Humidity 38    
Precipitation  
Precipitation 0.00 in - - ()
Sea Level Pressure  
Sea Level Pressure 30.09 in    
Wind  
Wind Speed 2 mph ()    
Max Wind Speed 8 mph    
Max Gust Speed -    
T = Trace of Precipitation, MM = Missing Value Source: Averaged Metar Reports

Daily Weather History Graph

Daily Weather History Graph

Search for Another Location

Airport or City:

Trip Planner

Search our weather history database for the weather conditions in past years. The results will help you decide how hot, cold, wet, or windy it might be!

Date:

Astronomy

Feb. 14, 2012 Rise Set
Actual Time 7:32 AM AST 5:54 PM AST
Civil Twilight 7:02 AM AST 6:24 PM AST
Nautical Twilight 6:27 AM AST 6:59 PM AST
Astronomical Twilight 5:53 AM AST 7:33 PM AST
Moon 1:19 AM AST (2/14) 10:49 AM AST (2/14)
Length of Visible Light 11h 22m
Length of Day
10h 21m
Waning Gibbous, 51% of the Moon is Illuminated
Feb 14
Waning Gibbous
Feb 14
Last Quarter
Feb 21
New
Feb 29
First Quarter
Mar 8
Full

Hourly Weather History & Observations

Time (AST) Temp. Windchill Dew Point Humidity Pressure Visibility Wind Dir Wind Speed Gust Speed Precip Events Conditions
12:00 AM -5.3 °F - -8.7 °F 85% 29.97 in - East 1.2 mph - N/A   Unknown
2:00 AM -7 °F - -10 °F 80% 30.00 in - Calm Calm - -  
2:00 AM -6.7 °F - -9.9 °F 86% 30.00 in - Calm Calm - N/A   Unknown
3:00 AM -7.2 °F - -10.3 °F 87% 30.03 in - South 1.2 mph - N/A   Unknown
4:00 AM -8.5 °F - -11.9 °F 85% 30.05 in - North 2.3 mph - N/A   Unknown
5:00 AM -7 °F - -10 °F 79% 30.07 in - SW 1.2 mph - -  
5:00 AM -7.1 °F - -10.1 °F 87% 30.07 in - SW 1.2 mph - N/A   Unknown
6:00 AM -6.5 °F - -9.9 °F 85% 30.09 in - Calm Calm - N/A   Unknown
8:00 AM -3 °F - -6 °F 81% 30.13 in - Calm Calm - -  
8:00 AM -2.6 °F - -5.8 °F 86% 30.13 in - Calm Calm - N/A   Unknown
9:00 AM 3.9 °F - -1.8 °F 77% 30.14 in - Calm Calm - N/A   Unknown
10:00 AM 15.6 °F - 0.7 °F 52% 30.14 in - SSE 1.2 mph - N/A   Unknown
11:00 AM 21 °F - 6 °F 38% 30.14 in - East 4.6 mph - -  
11:00 AM 21.2 °F 14.9 °F 6.1 °F 52% 30.14 in - East 4.6 mph - N/A   Unknown
12:00 PM 25.0 °F 17.1 °F 12.2 °F 58% 30.13 in - ESE 6.9 mph - N/A   Unknown
1:00 PM 28.8 °F 20.9 °F 18.3 °F 65% 30.10 in - ESE 8.1 mph - N/A   Unknown
2:00 PM 30 °F - 22 °F 62% 30.08 in - ESE 8.1 mph - -  
2:00 PM 29.8 °F 22.2 °F 22.1 °F 73% 30.08 in - ESE 8.1 mph - N/A   Unknown
3:00 PM 33.1 °F 26.1 °F 24.3 °F 70% 30.06 in - ESE 8.1 mph - N/A   Unknown
4:00 PM 31.5 °F 25.8 °F 25.3 °F 78% 30.06 in - East 5.8 mph - N/A   Unknown
5:00 PM 32 °F - 26 °F 68% 30.06 in - East 4.6 mph - -  
5:00 PM 31.6 °F 27.0 °F 25.5 °F 78% 30.06 in - East 4.6 mph - N/A   Unknown
6:00 PM 30.2 °F - 26.1 °F 85% 30.06 in - ENE 1.2 mph - N/A   Unknown
7:00 PM 26.8 °F - 23.7 °F 88% 30.09 in - NE 1.2 mph - N/A   Unknown
8:00 PM 24 °F - 22 °F 91% 30.10 in - ESE 1.2 mph - -  
8:00 PM 24.1 °F - 22.5 °F 94% 30.10 in - ESE 1.2 mph - N/A   Unknown
9:00 PM 23.2 °F - 21.9 °F 95% 30.11 in - NNE 1.2 mph - N/A   Unknown
10:00 PM 22.1 °F - 21.2 °F 96% 30.12 in - ENE 1.2 mph - N/A   Unknown
11:00 PM 21 °F - 20 °F 96% 30.13 in - NW 1.2 mph - -  
11:00 PM 21.2 °F - 20.3 °F 96% 30.13 in - NW 1.2 mph - N/A   Unknown